Location: Northcutt
(34.7304°N, 84.4305°W)
Time: 20:17:07
(UTC+00:00)

Transit 2A Rocket - Pass Details

Date: 06 October 2022
Orbit: 589 x 911 km, 66.7° (Epoch: 03 December)

Event Time Altitude Azimuth Distance (km) Brightness Sun altitude
Rises 20:22:12 0° 322° (NW) 3,094 8.2 32.3°
Reaches altitude 10° 20:24:37 10° 314° (NW) 2,223 7.6 31.9°
Maximum altitude 20:29:13 35° 249° (WSW) 1,228 8.4 31.1°
Drops below altitude 10° 20:34:11 10° 185° (S) 2,407 8.2 30.2°
Sets 20:36:54 0° 177° (S) 3,386 8.7 29.8°
